�N����,����,�~����,�C��,���x,�C��,����,���ϕ���,�ő�u�ԕ���,�ő厞����,���˗�,�I�_���x,�n�����x,�ő啗���N��,DTYPE
"19/03/05","00:10",0.0,7.0,93.9,1007.8,308.7,2.0,2.6,315.5,0.00,6.1,8.9,"00:01:34",1
"19/03/05","00:20",0.0,7.0,93.9,1008.3,316.0,2.7,4.2,312.8,0.00,6.1,9.1,"00:18:32",1
"19/03/05","00:30",0.2,7.0,93.9,1008.1,296.4,2.0,3.6,296.9,0.00,6.1,8.9,"00:21:30",1
"19/03/05","00:40",0.0,6.8,93.9,1008.6,304.6,1.7,2.2,340.2,0.00,5.9,8.9,"00:36:20",1
"19/03/05","00:50",0.0,6.8,94.0,1008.6,289.4,1.7,2.2,307.8,0.00,5.9,8.8,"00:47:52",1
"19/03/05","01:00",0.0,6.8,93.9,1009.0,293.5,1.8,2.2,302.1,0.00,5.9,8.8,"00:56:42",1
"19/03/05","01:10",0.0,6.8,93.9,1008.6,296.5,1.8,2.8,311.5,0.00,5.9,8.8,"01:09:08",1
"19/03/05","01:20",0.0,6.9,93.6,1008.8,342.6,1.6,1.6,342.6,0.00,6.0,8.9,"01:13:04",1
"19/03/05","01:30",0.0,7.0,93.5,1009.0,323.6,2.7,2.7,320.2,0.00,6.1,8.7,"01:22:04",1
"19/03/05","01:40",0.0,7.0,93.3,1009.0,328.9,2.2,3.6,343.7,0.00,6.0,8.7,"01:37:14",1
"19/03/05","01:50",0.0,7.0,93.2,1009.0,309.5,2.1,2.9,313.4,0.00,6.0,9.1,"01:48:58",1
"19/03/05","02:00",0.0,6.9,93.3,1009.5,316.6,3.1,5.0,326.2,0.00,5.9,8.7,"01:58:38",1
"19/03/05","02:10",0.0,6.7,93.0,1009.0,292.4,2.3,4.2,305.3,0.00,5.7,8.7,"02:03:28",1
"19/03/05","02:20",0.2,6.6,93.2,1009.7,271.2,1.5,2.9,270.8,0.00,5.6,8.8,"02:13:26",1
"19/03/05","02:30",0.0,6.3,93.2,1009.5,277.6,0.8,1.8,243.3,0.00,5.3,8.7,"02:20:24",1
"19/03/05","02:40",0.0,5.7,93.5,1009.3,294.7,1.1,2.1,306.1,0.00,4.8,8.5,"02:33:52",1
"19/03/05","02:50",0.0,5.4,94.3,1009.7,246.6,0.3,0.9,307.3,0.00,4.6,8.7,"02:40:10",1
"19/03/05","03:00",0.0,5.0,93.6,1009.5,326.7,2.1,2.4,338.7,0.00,4.1,8.5,"02:57:54",1
"19/03/05","03:10",0.0,4.4,94.5,1009.5,302.5,1.1,1.2,290.3,0.00,3.6,8.6,"03:06:18",1
"19/03/05","03:20",0.0,4.0,94.9,1009.7,310.6,2.1,3.3,321.1,0.00,3.3,8.4,"03:11:28",1
"19/03/05","03:30",0.0,3.9,95.2,1010.0,303.2,1.6,2.4,326.8,0.00,3.2,8.3,"03:24:20",1
"19/03/05","03:40",0.0,3.8,96.5,1010.0,293.5,1.3,2.1,327.9,0.00,3.3,8.3,"03:38:24",1
"19/03/05","03:50",0.0,3.6,96.9,1009.7,296.5,1.7,2.2,283.9,0.00,3.2,8.4,"03:45:50",1
"19/03/05","04:00",0.0,3.7,97.1,1010.2,317.7,2.3,3.5,312.2,0.00,3.3,8.1,"03:56:28",1
"19/03/05","04:10",0.0,3.8,97.4,1010.4,305.7,1.8,3.1,319.3,0.00,3.5,8.2,"04:06:00",1
"19/03/05","04:20",0.0,3.6,97.1,1010.2,310.4,2.3,3.3,319.2,0.00,3.2,7.9,"04:13:28",1
"19/03/05","04:30",0.0,3.3,96.4,1010.7,319.3,1.6,2.7,315.2,0.00,2.8,7.9,"04:24:38",1
"19/03/05","04:40",0.0,3.2,97.0,1010.2,296.1,1.6,2.7,321.4,0.00,2.8,7.7,"04:39:24",1
"19/03/05","04:50",0.0,3.0,97.4,1010.4,307.4,1.7,3.2,311.6,0.00,2.7,7.7,"04:48:40",1
"19/03/05","05:00",0.0,3.2,97.7,1010.7,315.2,2.6,4.0,332.2,0.00,2.9,7.8,"04:57:02",1
"19/03/05","05:10",0.0,3.2,97.2,1010.7,318.7,2.0,3.1,319.7,0.00,2.8,7.6,"05:00:42",1
"19/03/05","05:20",0.0,2.9,98.0,1011.2,305.4,1.8,4.0,305.9,0.00,2.7,7.8,"05:18:56",1
"19/03/05","05:30",0.0,3.0,97.5,1011.2,300.2,2.0,3.7,324.6,0.00,2.7,7.5,"05:26:40",1
"19/03/05","05:40",0.0,3.1,98.3,1011.4,309.6,1.5,3.4,316.4,0.00,2.9,7.7,"05:36:44",1
"19/03/05","05:50",0.0,3.2,98.1,1011.4,292.7,1.8,2.8,302.4,0.00,3.0,7.6,"05:40:48",1
"19/03/05","06:00",0.0,3.0,97.0,1011.9,331.1,1.7,4.0,320.1,0.00,2.6,7.4,"05:51:52",1
"19/03/05","06:10",0.0,2.5,98.6,1011.6,298.4,2.5,4.0,333.8,0.00,2.3,7.6,"06:08:58",1
"19/03/05","06:20",0.0,2.9,98.2,1011.9,319.9,2.2,3.5,322.3,0.00,2.7,7.5,"06:16:48",1
"19/03/05","06:30",0.0,2.8,97.8,1011.9,312.1,2.2,3.9,324.7,0.00,2.5,7.4,"06:23:22",1
"19/03/05","06:40",0.0,2.4,98.3,1012.1,301.5,2.2,4.1,319.8,0.00,2.2,7.4,"06:30:02",1
"19/03/05","06:50",0.0,2.8,97.8,1012.3,306.7,2.1,4.9,313.9,0.00,2.5,7.2,"06:43:04",1
"19/03/05","07:00",0.0,2.7,98.5,1012.6,314.1,1.6,3.3,320.3,0.00,2.5,7.4,"06:55:12",1
"19/03/05","07:10",0.0,2.7,98.2,1012.8,312.5,2.1,3.4,320.6,0.00,2.5,7.2,"07:09:18",1
"19/03/05","07:20",0.0,2.8,98.4,1013.0,307.0,2.2,3.1,327.1,0.00,2.6,7.0,"07:10:36",1
"19/03/05","07:30",0.0,3.2,97.8,1013.0,292.7,1.2,3.5,313.6,0.00,2.9,7.0,"07:20:56",1
"19/03/05","07:40",0.0,4.0,99.0,1013.3,270.7,1.5,3.5,276.1,0.01,3.9,7.2,"07:38:00",1
"19/03/05","07:50",0.0,4.9,97.1,1013.8,17.9,0.7,1.3,296.4,0.02,4.5,7.1,"07:45:36",1
"19/03/05","08:00",0.0,5.0,97.9,1014.0,276.0,0.8,2.7,318.3,0.04,4.7,7.1,"07:50:44",1
"19/03/05","08:10",0.0,5.6,96.9,1014.2,255.5,1.0,2.2,317.0,0.06,5.2,7.3,"08:01:06",1
"19/03/05","08:20",0.0,6.6,95.7,1014.5,220.8,1.1,2.1,239.5,0.08,6.0,7.4,"08:12:00",1
"19/03/05","08:30",0.0,7.3,93.2,1014.9,308.5,0.6,1.7,336.2,0.10,6.3,7.3,"08:29:22",1
"19/03/05","08:40",0.0,7.3,90.4,1015.2,354.0,0.6,1.6,53.2,0.13,5.9,7.5,"08:39:04",1
"19/03/05","08:50",0.0,8.2,88.4,1015.2,315.8,1.1,2.1,334.3,0.15,6.4,7.5,"08:43:52",1
"19/03/05","09:00",0.0,9.1,82.5,1015.6,334.3,1.1,3.4,340.2,0.18,6.3,7.5,"08:57:28",1
"19/03/05","09:10",0.0,9.6,72.8,1015.4,338.6,2.2,5.1,329.7,0.21,5.0,7.7,"09:07:20",1
"19/03/05","09:20",0.0,10.1,69.6,1016.8,336.2,3.1,6.4,319.3,0.24,4.8,7.8,"09:10:32",1
"19/03/05","09:30",0.0,10.6,65.4,1016.8,342.4,1.7,4.3,342.8,0.27,4.4,8.0,"09:22:24",1
"19/03/05","09:40",0.0,11.0,66.3,1017.1,336.8,2.1,6.7,338.2,0.30,5.0,8.2,"09:32:56",1
"19/03/05","09:50",0.0,10.7,66.3,1017.1,349.7,2.8,6.7,330.7,0.33,4.7,8.2,"09:47:04",1
"19/03/05","10:00",0.0,11.2,66.7,1016.8,332.8,3.5,5.9,332.4,0.35,5.3,8.4,"09:54:16",1
"19/03/05","10:10",0.0,11.4,65.7,1017.1,335.0,2.2,6.3,333.7,0.37,5.3,8.5,"10:08:08",1
"19/03/05","10:20",0.0,11.6,63.2,1016.8,345.4,2.5,5.7,323.3,0.39,4.9,8.7,"10:18:24",1
"19/03/05","10:30",0.0,11.8,61.8,1016.6,335.4,2.5,6.0,334.9,0.41,4.8,9.2,"10:20:48",1
"19/03/05","10:40",0.0,11.9,62.3,1016.4,327.2,2.2,4.7,313.8,0.43,5.0,9.0,"10:38:16",1
"19/03/05","10:50",0.0,11.7,61.3,1016.4,308.0,2.8,6.0,340.9,0.44,4.5,9.3,"10:48:08",1
"19/03/05","11:00",0.0,12.3,61.7,1016.4,302.2,2.5,4.4,318.5,0.45,5.2,9.7,"10:57:12",1
"19/03/05","11:10",0.0,12.2,57.1,1015.9,322.4,2.6,5.7,344.3,0.46,4.0,9.6,"11:05:28",1
"19/03/05","11:20",0.0,12.5,57.1,1015.9,321.8,2.1,5.4,324.6,0.48,4.3,10.1,"11:17:36",1
"19/03/05","11:30",0.0,12.7,58.0,1015.4,322.7,2.7,5.6,330.0,0.48,4.7,10.2,"11:22:48",1
"19/03/05","11:40",0.0,13.2,57.1,1015.9,290.7,2.1,4.0,320.5,0.49,4.9,10.3,"11:33:20",1
"19/03/05","11:50",0.0,13.0,56.2,1015.4,312.0,2.3,5.2,341.6,0.50,4.5,10.6,"11:41:12",1
"19/03/05","12:00",0.0,13.5,53.6,1015.6,307.6,2.1,4.5,331.3,0.52,4.3,10.8,"11:56:32",1
"19/03/05","12:10",0.0,13.4,52.4,1015.2,305.4,3.1,5.7,319.8,0.52,3.9,11.0,"12:03:12",1
"19/03/05","12:20",0.0,13.8,52.0,1014.9,300.4,3.2,6.0,323.7,0.53,4.2,11.3,"12:13:12",1
"19/03/05","12:30",0.0,14.1,50.9,1015.4,340.7,3.0,6.3,338.3,0.52,4.1,11.4,"12:24:08",1
"19/03/05","12:40",0.0,14.4,50.4,1014.5,289.0,2.3,5.0,331.1,0.53,4.3,11.6,"12:30:02",1
"19/03/05","12:50",0.0,14.5,47.4,1014.7,332.3,2.1,4.2,305.8,0.52,3.5,11.8,"12:40:24",1
"19/03/05","13:00",0.0,14.2,48.2,1014.2,318.5,3.9,7.3,343.4,0.53,3.5,12.0,"12:52:56",1
"19/03/05","13:10",0.0,14.7,44.6,1014.5,313.6,3.1,6.7,314.0,0.53,2.8,11.9,"13:07:52",1
"19/03/05","13:20",0.0,14.8,43.2,1014.2,307.2,3.7,6.3,320.6,0.52,2.5,12.2,"13:18:32",1
"19/03/05","13:30",0.0,15.3,42.9,1014.2,316.5,2.8,5.8,320.3,0.52,2.8,12.1,"13:24:24",1
"19/03/05","13:40",0.0,15.2,45.3,1014.2,345.3,3.4,6.3,331.2,0.49,3.5,12.5,"13:36:48",1
"19/03/05","13:50",0.0,15.3,40.0,1014.0,314.6,3.5,7.9,312.6,0.49,1.8,12.7,"13:48:24",1
"19/03/05","14:00",0.0,15.5,40.3,1014.0,325.4,4.0,6.0,339.2,0.48,2.1,12.7,"13:53:28",1
"19/03/05","14:10",0.0,15.6,35.4,1013.8,318.8,3.4,7.3,334.2,0.46,0.4,12.7,"14:07:36",1
"19/03/05","14:20",0.0,15.5,35.4,1013.5,302.0,3.5,7.4,335.7,0.46,0.3,12.9,"14:10:08",1
"19/03/05","14:30",0.0,15.3,36.2,1014.2,317.4,3.4,7.0,343.1,0.43,0.4,12.9,"14:28:16",1
"19/03/05","14:40",0.0,15.8,36.6,1014.0,328.4,3.0,5.4,325.5,0.38,1.0,13.2,"14:32:00",1
"19/03/05","14:50",0.0,16.0,38.2,1013.8,347.0,2.2,5.0,334.9,0.36,1.8,13.2,"14:48:48",1
"19/03/05","15:00",0.0,15.4,32.5,1013.8,333.2,3.7,5.7,340.5,0.32,-0.9,13.2,"14:54:48",1
"19/03/05","15:10",0.0,15.6,33.7,1013.8,341.8,2.8,5.9,339.5,0.30,-0.3,13.2,"15:01:28",1
"19/03/05","15:20",0.0,15.8,35.0,1013.8,340.7,2.8,5.2,328.0,0.30,0.4,13.3,"15:14:24",1
"19/03/05","15:30",0.0,15.8,31.5,1013.8,345.6,2.2,5.7,330.5,0.30,-1.0,13.4,"15:21:36",1
"19/03/05","15:40",0.0,15.6,31.8,1013.5,335.9,2.0,4.4,342.5,0.25,-1.1,13.4,"15:39:12",1
"19/03/05","15:50",0.0,15.6,34.5,1013.8,328.8,3.1,4.2,337.1,0.24,0.0,13.3,"15:41:44",1
"19/03/05","16:00",0.0,15.2,32.2,1013.3,324.6,2.7,4.1,325.8,0.19,-1.2,13.2,"15:52:56",1
"19/03/05","16:10",0.0,15.4,32.9,1013.0,340.3,2.1,3.7,331.8,0.16,-0.8,13.3,"16:02:00",1
"19/03/05","16:20",0.0,15.1,35.0,1013.8,341.1,2.0,3.7,347.0,0.13,-0.2,13.1,"16:10:32",1
"19/03/05","16:30",0.0,14.9,33.1,1014.0,330.4,3.4,6.0,331.6,0.13,-1.1,13.2,"16:22:56",1
"19/03/05","16:40",0.0,15.1,34.2,1014.2,332.7,3.0,4.4,344.4,0.13,-0.5,13.0,"16:35:52",1
"19/03/05","16:50",0.0,15.2,32.7,1014.2,329.6,3.0,5.0,342.2,0.11,-1.0,13.0,"16:46:40",1
"19/03/05","17:00",0.0,15.1,36.2,1014.0,325.3,3.0,4.4,328.0,0.09,0.3,12.9,"16:52:00",1
"19/03/05","17:10",0.0,14.9,42.5,1014.0,309.5,2.3,4.4,326.1,0.07,2.3,12.9,"17:09:52",1
"19/03/05","17:20",0.0,14.6,43.5,1014.0,311.5,2.5,4.3,339.0,0.04,2.4,12.8,"17:10:24",1
"19/03/05","17:30",0.0,14.3,39.8,1014.0,325.4,2.7,4.7,346.1,0.02,0.9,12.7,"17:20:32",1
"19/03/05","17:40",0.0,14.0,45.0,1014.2,311.0,2.1,3.7,336.3,0.01,2.3,12.7,"17:33:52",1
"19/03/05","17:50",0.0,13.6,46.3,1014.0,316.1,2.5,3.5,317.3,0.00,2.3,12.6,"17:49:36",1
"19/03/05","18:00",0.0,13.1,47.0,1014.2,329.5,2.6,3.4,331.7,0.00,2.1,12.6,"17:54:08",1
"19/03/05","18:10",0.0,12.6,49.6,1013.8,330.5,2.3,3.4,335.7,0.00,2.4,12.3,"18:03:04",1
"19/03/05","18:20",0.0,11.8,50.9,1014.5,333.9,2.7,4.2,343.0,0.00,2.0,12.0,"18:10:02",1
"19/03/05","18:30",0.0,11.5,50.1,1014.9,329.2,3.6,5.2,326.3,0.00,1.5,12.2,"18:23:04",1
"19/03/05","18:40",0.0,11.6,47.9,1014.7,323.2,3.5,5.8,329.9,0.00,1.0,11.9,"18:30:24",1
"19/03/05","18:50",0.0,11.2,50.0,1014.9,293.2,2.3,3.7,325.0,0.00,1.2,11.9,"18:45:58",1
"19/03/05","19:00",0.0,11.0,50.3,1014.9,278.9,2.2,3.6,261.1,0.00,1.1,11.8,"18:58:16",1
"19/03/05","19:10",0.0,10.8,50.0,1015.2,305.9,2.1,3.5,323.6,0.00,0.8,11.6,"19:05:22",1
"19/03/05","19:20",0.0,10.7,50.5,1015.6,309.8,2.5,3.2,314.8,0.00,0.9,11.7,"19:14:40",1
"19/03/05","19:30",0.0,10.8,49.5,1015.6,316.9,2.7,4.3,334.4,0.00,0.7,11.4,"19:22:32",1
"19/03/05","19:40",0.0,10.5,52.8,1015.6,293.4,2.2,3.3,322.9,0.00,1.3,11.3,"19:31:28",1
"19/03/05","19:50",0.0,10.0,56.7,1015.9,287.5,1.8,2.4,304.0,0.00,1.8,11.2,"19:42:48",1
"19/03/05","20:00",0.0,9.7,58.7,1015.6,291.0,1.8,2.6,310.1,0.00,2.1,11.2,"19:55:20",1
"19/03/05","20:10",0.0,9.4,60.1,1015.6,309.6,1.7,2.6,317.7,0.00,2.1,11.2,"20:02:16",1
"19/03/05","20:20",0.0,9.1,61.9,1015.9,301.3,1.8,2.7,321.8,0.00,2.2,11.1,"20:14:56",1
"19/03/05","20:30",0.0,8.6,64.7,1015.6,301.7,1.7,2.5,321.7,0.00,2.4,10.9,"20:28:48",1
"19/03/05","20:40",0.0,8.3,65.5,1015.9,295.5,1.7,2.5,315.4,0.00,2.3,10.8,"20:32:08",1
"19/03/05","20:50",0.0,8.2,67.2,1015.9,320.9,2.1,3.6,331.7,0.00,2.5,10.7,"20:46:56",1
"19/03/05","21:00",0.0,8.4,67.5,1015.9,311.6,3.0,4.7,318.5,0.00,2.8,10.5,"20:52:24",1
"19/03/05","21:10",0.0,8.4,66.8,1015.6,277.3,1.8,2.8,312.3,0.00,2.6,10.7,"21:02:32",1
"19/03/05","21:20",0.0,8.2,67.5,1015.9,299.3,2.0,2.7,304.8,0.00,2.6,10.6,"21:16:24",1
"19/03/05","21:30",0.0,8.0,67.5,1016.4,302.4,2.0,2.6,320.2,0.00,2.4,10.6,"21:25:28",1
"19/03/05","21:40",0.0,7.8,70.0,1016.1,294.2,1.8,2.4,309.4,0.00,2.7,10.4,"21:35:36",1
"19/03/05","21:50",0.0,7.8,70.1,1016.1,287.9,1.7,3.2,325.2,0.00,2.7,10.2,"21:48:08",1
"19/03/05","22:00",0.0,7.8,70.3,1016.4,284.9,1.8,2.5,271.8,0.00,2.8,10.2,"21:56:16",1
"19/03/05","22:10",0.0,7.9,69.6,1016.1,302.8,2.2,3.2,319.2,0.00,2.7,10.2,"22:06:56",1
"19/03/05","22:20",0.0,7.9,69.4,1015.9,310.2,2.2,3.1,312.1,0.00,2.7,10.2,"22:15:12",1
"19/03/05","22:30",0.0,7.7,70.2,1016.4,300.2,1.6,2.4,297.9,0.00,2.7,10.0,"22:29:20",1
"19/03/05","22:40",0.0,7.7,70.4,1016.1,303.0,1.8,2.9,318.9,0.00,2.7,10.0,"22:34:48",1
"19/03/05","22:50",0.0,7.4,70.9,1016.1,325.1,2.2,2.9,319.1,0.00,2.5,10.1,"22:48:40",1
"19/03/05","23:00",0.0,6.9,73.5,1015.9,287.2,1.8,2.2,289.8,0.00,2.5,10.0,"22:59:28",1
"19/03/05","23:10",0.0,7.0,74.0,1015.6,290.3,1.7,2.0,298.8,0.00,2.7,9.9,"23:01:36",1
"19/03/05","23:20",0.0,7.1,73.5,1015.6,301.8,2.0,2.8,324.4,0.00,2.7,9.8,"23:13:04",1
"19/03/05","23:30",0.0,6.9,74.0,1015.9,312.8,2.1,2.7,326.5,0.00,2.6,9.8,"23:27:28",1
"19/03/05","23:40",0.0,6.7,75.7,1015.6,296.2,1.5,2.0,323.4,0.00,2.8,9.9,"23:30:08",1
"19/03/05","23:50",0.0,6.7,76.6,1015.6,306.0,2.3,3.2,311.3,0.00,2.9,9.6,"23:49:52",1
"19/03/05","24:00",0.0,6.8,76.2,1015.9,296.9,2.2,3.2,315.6,0.00,2.9,9.5,"23:51:04",1
